Stillwater, OK

11:29 AM CDT on April 19, 2018 (GMT -0500)
Stillwater Municipal

Weather History for KSWO - February, 2014

Change the Weather History Date:

Sunday, February 2, 2014

  Actual Average Record
Temperature  
Mean Temperature 25 °F -  
Max Temperature 34 °F 47 °F 73 °F (2003)
Min Temperature 12 °F 26 °F 3 °F (2011)
Degree Days  
Heating Degree Days 40    
Moisture  
Dew Point 12 °F    
Average Humidity 60    
Maximum Humidity 80    
Minimum Humidity 30    
Precipitation  
Precipitation 0.00 in - - ()
Sea Level Pressure  
Sea Level Pressure 30.30 in    
Wind  
Wind Speed 11 mph (NNE)    
Max Wind Speed 17 mph    
Max Gust Speed 26 mph    
Visibility 8 miles    
Events Snow    
Averages and records for this station are not official NWS values.
T = Trace of Precipitation, MM = Missing Value Source: NWS Daily Summary

Daily Weather History Graph

Daily Weather History Graph

Search for Another Location

Airport or City:

Astronomy

Feb. 02, 2014 Rise Set
Actual Time 7:28 AM CST 5:56 PM CST
Civil Twilight 7:01 AM CST 6:23 PM CST
Nautical Twilight 6:30 AM CST 6:53 PM CST
Astronomical Twilight 6:00 AM CST 7:24 PM CST
Moon 9:03 AM CST (2/2) 9:33 PM CST (2/2)
Length of Visible Light 11h 21m
Length of Day
10h 27m
Waxing Crescent, 11% of the Moon is Illuminated
Feb 2
Waxing Crescent
Feb 6
First Quarter
Feb 14
Full
Feb 22
Last Quarter
Mar 1
New

Hourly Weather History & Observations

Time (CST) Temp. Windchill Dew Point Humidity Pressure Visibility Wind Dir Wind Speed Gust Speed Precip Events Conditions
12:53 AM 30.0 °F 21.7 °F 21.9 °F 72% 30.22 in 10.0 mi North 9.2 mph - N/A   Mostly Cloudy
1:08 AM 30.2 °F 21.9 °F 21.2 °F 69% 30.21 in 10.0 mi North 9.2 mph - N/A   Overcast
1:53 AM 28.9 °F 19.2 °F 19.9 °F 69% 30.23 in 10.0 mi North 11.5 mph - N/A   Overcast
2:53 AM 28.0 °F 17.5 °F 18.0 °F 66% 30.23 in 10.0 mi North 12.7 mph 21.9 mph N/A   Mostly Cloudy
3:53 AM 27.0 °F 15.2 °F 16.0 °F 63% 30.22 in 10.0 mi North 15.0 mph 20.7 mph N/A   Clear
4:53 AM 26.1 °F 15.0 °F 15.1 °F 63% 30.29 in 10.0 mi North 12.7 mph - N/A   Overcast
5:53 AM 25.0 °F 13.1 °F 14.0 °F 63% 30.27 in 10.0 mi North 13.8 mph 19.6 mph N/A   Overcast
6:53 AM 24.1 °F 10.6 °F 12.0 °F 60% 30.26 in 10.0 mi NNE 17.3 mph 26.5 mph N/A   Overcast
7:53 AM 23.0 °F 11.7 °F 12.0 °F 63% 30.28 in 10.0 mi NNE 11.5 mph 21.9 mph N/A   Overcast
8:53 AM 24.1 °F 12.5 °F 10.9 °F 57% 30.32 in 10.0 mi NNE 12.7 mph - N/A   Overcast
9:33 AM 23.0 °F 11.1 °F 12.2 °F 63% 30.34 in 2.5 mi NNE 12.7 mph - 0.00 in Snow Light Snow
9:41 AM 23.0 °F 12.4 °F 14.0 °F 68% 30.34 in 1.0 mi NNE 10.4 mph - 0.00 in Snow Light Snow
9:50 AM 21.2 °F 7.8 °F 15.8 °F 80% 30.33 in 0.5 mi NNE 15.0 mph - 0.00 in Snow Snow
9:53 AM 21.9 °F 11.7 °F 16.0 °F 78% 30.36 in 0.5 mi NNE 9.2 mph - 0.00 in Snow Snow
10:04 AM 23.0 °F 11.7 °F 15.8 °F 74% 30.32 in 1.0 mi NNE 11.5 mph - 0.00 in Snow Light Snow
10:13 AM 23.0 °F 10.6 °F 15.8 °F 74% 30.31 in 3.0 mi NNE 13.8 mph - 0.00 in Snow Light Snow
10:22 AM 23.0 °F 10.6 °F 15.8 °F 74% 30.31 in 7.0 mi North 13.8 mph - 0.00 in   Overcast
10:53 AM 24.1 °F 14.4 °F 12.9 °F 62% 30.37 in 10.0 mi NNE 9.2 mph - 0.00 in   Overcast
11:53 AM 27.0 °F 16.7 °F 10.9 °F 51% 30.33 in 10.0 mi NNE 11.5 mph - N/A   Overcast
12:53 PM 28.9 °F 18.6 °F 10.9 °F 47% 30.32 in 10.0 mi North 12.7 mph - N/A   Overcast
1:53 PM 33.1 °F 23.4 °F 9.0 °F 37% 30.27 in 10.0 mi NNE 13.8 mph - N/A   Clear
2:53 PM 32.0 °F 23.0 °F 8.1 °F 37% 30.27 in 10.0 mi North 11.5 mph 19.6 mph N/A   Clear
3:53 PM 34.0 °F 25.0 °F 6.1 °F 31% 30.27 in 10.0 mi NE 12.7 mph - N/A   Clear
4:53 PM 34.0 °F 25.5 °F 5.0 °F 30% 30.29 in 10.0 mi NE 11.5 mph - N/A   Clear
5:53 PM 28.9 °F 21.9 °F 6.1 °F 38% 30.30 in 10.0 mi ENE 6.9 mph - N/A   Clear
6:53 PM 24.1 °F 18.2 °F 7.0 °F 48% 30.31 in 10.0 mi NE 4.6 mph - N/A   Clear
7:53 PM 21.9 °F 13.4 °F 8.1 °F 55% 30.30 in 10.0 mi NE 6.9 mph - N/A   Clear
8:53 PM 19.0 °F 12.3 °F 7.0 °F 59% 30.33 in 10.0 mi NNE 4.6 mph - N/A   Clear
9:53 PM 16.0 °F - 7.0 °F 68% 30.34 in 10.0 mi Calm Calm - N/A   Clear
10:53 PM 17.1 °F 10.0 °F 8.1 °F 68% 30.33 in 10.0 mi NNE 4.6 mph - N/A   Clear
11:53 PM 12.9 °F 6.9 °F 7.0 °F 77% 30.34 in 10.0 mi NE 3.5 mph - N/A   Clear